Regional Weather Roundup
Issued by NWS

Home | Current Version | Previous Version | Graphics & Text | Print | Product List | Glossary On
Versions: 1 2 3 4 5 6 7 8 9 10 11 12 13 14 15 16 17 18 19 20 21 22 23 24 25 26 27 28 29 30 31 32 33 34 35 36 37 38 39 40 41 42 43 44 45 46 47 48 49 50
000
ASUS45 KCYS 290110
RWRWY

WYOMING REGIONAL WEATHER ROUNDUP
NATIONAL WEATHER SERVICE CHEYENNE WY
700 PM MDT THU AUG 28 2014

NOTE:  "FAIR" INDICATES FEW OR NO CLOUDS BELOW 12,000 FEET
WITH NO SIGNIFICANT WEATHER AND/OR OBSTRUCTIONS TO VISIBILITY.

WYZ001-290200-
YELLOWSTONE NATIONAL PARK

CITY           SKY/WX    TMP DP  RH WIND       PRES   REMARKS
LK YELLOWSTONE   N/A     62  42  47 W8        30.28F
W YELLOWSTONE  NOT AVBL

$$
WYZ002>013-054>058-071-098>099-290200-
NORTHERN WYOMING

CITY           SKY/WX    TMP DP  RH WIND       PRES   REMARKS
JACKSON        SUNNY     73  39  29 CALM      30.18F
CODY           PTCLDY    79  43  27 SE8       30.01F
GREYBULL       CLEAR     83  41  22 S7        29.93F
WORLAND        CLEAR     84  39  20 CALM      29.96F
SHERIDAN       CLEAR     81  46  29 NW6       29.95F
BUFFALO        PTCLDY    75  46  35 W8        30.04F
GILLETTE       CLEAR     78  46  32 N7        29.98F
HULETT         FAIR      77  45  31 MISG      29.99
NEWCASTLE      FAIR      79  37  22 CALM      29.98

$$
WYZ014>020-022>026-101>103-290200-
CENTRAL WYOMING

CITY           SKY/WX    TMP DP  RH WIND       PRES   REMARKS
BIG PINEY      SUNNY     71  40  32 NW14      30.23S
PINEDALE       CLEAR     70  36  28 W14G22    30.22S
DUBOIS         FAIR      70  30  23 NW16G22   30.20F
LANDER         CLEAR     74  47  38 SE12      30.05F
RIVERTON       CLEAR     77  36  22 SE9       30.08F
CASPER         PTCLDY    76  43  30 CALM      30.07F
DOUGLAS        CLEAR     71  49  45 SE9       30.05S

$$
WYZ021-027>030-104>119-290200-
SOUTHERN WYOMING

CITY           SKY/WX    TMP DP  RH WIND       PRES   REMARKS
EVANSTON       SUNNY     70  41  34 SW8       30.27F
KEMMERER       CLEAR    N/A N/A N/A W12       30.26F
FORT BRIDGER   FAIR      72  40  31 NW10      30.28F
ROCK SPRINGS   CLEAR     71  39  31 W12       30.21F
DIXON          FAIR      71  47  43 W7        30.23F
RAWLINS        CLEAR     71  33  24 N7        30.20S
SARATOGA       MOCLDY    68  45  42 W6        30.23S
LARAMIE        MOCLDY    62  45  53 NW8       30.20F
CHEYENNE       MOCLDY    66  46  48 CALM      30.14F
TORRINGTON     MOCLDY    66  55  67 SE6       30.02F
PINE BLUFFS    FAIR      63  50  63 N6        30.10S

$$


USA.gov is the U.S. government's official web portal to all federal, state and local government web resources and services.